TimeMDT,TemperatureF,Dew PointF,Humidity,Sea Level PressureIn,VisibilityMPH,Wind Direction,Wind SpeedMPH,Gust SpeedMPH,PrecipitationIn,Events,Conditions,WindDirDegrees,DateUTC
12:59 AM,70.7,55.0,58,30.00,10.0,NW,8.1,-,N/A,,Clear,320,2013-06-27 06:59:00
1:58 AM,66.4,57.7,74,30.02,10.0,WNW,9.2,-,N/A,,Clear,300,2013-06-27 07:58:00
2:58 AM,63.5,57.4,80,30.03,10.0,WNW,9.2,-,N/A,,Clear,300,2013-06-27 08:58:00
3:58 AM,60.8,57.2,88,30.04,10.0,West,8.1,-,N/A,,Clear,280,2013-06-27 09:58:00
4:58 AM,59.9,55.9,87,30.06,10.0,West,5.8,-,N/A,,Clear,270,2013-06-27 10:58:00
6:55 AM,60.8,55.4,82,30.09,10.0,NW,4.6,-,N/A,,Clear,320,2013-06-27 12:55:00
7:58 AM,63.3,56.7,79,30.18,10.0,WNW,3.5,-,N/A,,Clear,300,2013-06-27 13:58:00
8:58 AM,65.8,56.5,72,30.12,10.0,NNW,2.3,-,N/A,,Clear,330,2013-06-27 14:58:00
9:58 AM,70.9,55.2,58,30.19,10.0,Variable,2.3,-,N/A,,Clear,0,2013-06-27 15:58:00
10:58 AM,77.0,54.7,46,30.19,10.0,ESE,3.5,-,N/A,,Clear,110,2013-06-27 16:58:00
11:58 AM,81.0,55.6,42,30.19,10.0,Variable,3.5,-,N/A,,Clear,0,2013-06-27 17:58:00
12:58 PM,85.1,52.3,32,30.09,10.0,Variable,4.6,-,N/A,,Clear,0,2013-06-27 18:58:00
1:58 PM,90.1,49.3,25,30.07,10.0,Variable,3.5,-,N/A,,Clear,0,2013-06-27 19:58:00
2:58 PM,91.9,46.0,21,30.05,10.0,NW,9.2,-,N/A,,Clear,310,2013-06-27 20:58:00
3:58 PM,94.3,45.0,18,30.03,10.0,NW,8.1,-,N/A,,Clear,320,2013-06-27 21:58:00
4:58 PM,96.3,45.5,18,30.01,10.0,Variable,4.6,-,N/A,,Clear,0,2013-06-27 22:58:00
5:58 PM,97.0,44.4,16,30.08,10.0,NNW,10.4,-,N/A,,Clear,340,2013-06-27 23:58:00
6:58 PM,96.8,42.8,16,30.07,10.0,North,5.8,-,N/A,,Clear,350,2013-06-28 00:58:00
7:58 PM,96.4,42.3,15,29.99,10.0,NNW,16.1,-,N/A,,Clear,330,2013-06-28 01:58:00
8:58 PM,93.0,42.8,18,30.00,10.0,NNW,12.7,-,N/A,,Clear,330,2013-06-28 02:58:00
9:58 PM,88.2,43.0,21,30.02,10.0,NNW,12.7,-,N/A,,Clear,330,2013-06-28 03:58:00
10:58 PM,82.0,49.1,32,30.05,10.0,North,9.2,-,N/A,,Clear,350,2013-06-28 04:58:00
11:58 PM,75.0,52.7,46,30.05,10.0,NW,9.2,-,N/A,,Clear,320,2013-06-28 05:58:00